TimePST,TemperatureF,Dew PointF,Humidity,Sea Level PressureIn,VisibilityMPH,Wind Direction,Wind SpeedMPH,Gust SpeedMPH,PrecipitationIn,Events,Conditions,WindDirDegrees,DateUTC
12:53 AM,28.9,23.0,78,30.18,10.0,North,6.9,-,N/A,,Clear,360,2013-01-11 08:53:00
1:53 AM,28.9,21.9,75,30.19,10.0,North,8.1,-,N/A,,Clear,10,2013-01-11 09:53:00
2:53 AM,30.0,21.0,69,30.20,10.0,North,8.1,-,N/A,,Clear,10,2013-01-11 10:53:00
3:53 AM,28.9,19.9,69,30.21,10.0,North,6.9,-,N/A,,Clear,360,2013-01-11 11:53:00
4:53 AM,30.9,18.0,59,30.22,10.0,NE,10.4,-,N/A,,Clear,40,2013-01-11 12:53:00
5:53 AM,30.9,17.1,57,30.23,10.0,NNE,10.4,19.6,N/A,,Clear,20,2013-01-11 13:53:00
6:53 AM,28.9,18.0,64,30.27,10.0,North,9.2,-,N/A,,Clear,10,2013-01-11 14:53:00
7:53 AM,30.0,18.0,61,30.29,10.0,NNE,13.8,19.6,N/A,,Clear,20,2013-01-11 15:53:00
8:53 AM,30.0,19.0,64,30.31,10.0,North,9.2,-,N/A,,Clear,10,2013-01-11 16:53:00
9:53 AM,32.0,19.9,61,30.32,10.0,NNE,15.0,21.9,N/A,,Clear,30,2013-01-11 17:53:00
10:53 AM,34.0,21.0,59,30.33,10.0,North,12.7,20.7,N/A,,Clear,10,2013-01-11 18:53:00
11:53 AM,35.6,19.4,52,30.30,10.0,NNE,10.4,-,N/A,,Clear,20,2013-01-11 19:53:00
12:53 PM,36.0,16.0,44,30.33,10.0,NE,11.5,20.7,N/A,,Clear,40,2013-01-11 20:53:00
1:53 PM,37.0,17.1,44,30.33,10.0,NNE,10.4,-,N/A,,Clear,30,2013-01-11 21:53:00
2:53 PM,37.0,19.0,48,30.34,10.0,North,6.9,-,N/A,,Clear,10,2013-01-11 22:53:00
3:53 PM,34.0,19.0,54,30.35,10.0,North,5.8,-,N/A,,Clear,360,2013-01-11 23:53:00
4:53 PM,30.9,19.9,64,30.35,10.0,Calm,Calm,-,N/A,,Clear,0,2013-01-12 00:53:00
5:53 PM,27.0,21.9,81,30.35,10.0,Calm,Calm,-,N/A,,Clear,0,2013-01-12 01:53:00
6:53 PM,27.0,21.9,81,30.35,10.0,Calm,Calm,-,N/A,,Clear,0,2013-01-12 02:53:00
7:53 PM,28.0,21.0,75,30.35,10.0,Calm,Calm,-,N/A,,Clear,0,2013-01-12 03:53:00
8:53 PM,25.0,21.0,85,30.35,10.0,Calm,Calm,-,N/A,,Clear,0,2013-01-12 04:53:00
9:53 PM,24.1,19.9,84,30.35,10.0,Calm,Calm,-,N/A,,Clear,0,2013-01-12 05:53:00
10:53 PM,25.0,21.9,88,30.36,10.0,Calm,Calm,-,N/A,,Clear,0,2013-01-12 06:53:00
11:53 PM,24.1,21.9,91,30.35,10.0,Calm,Calm,-,N/A,,Clear,0,2013-01-12 07:53:00